Weather History for Shannon Airport, Ireland

Change the Weather History Date:

Wednesday, December 18, 2013

  Actual Average Record
Temperature  
Mean Temperature 46 °F -  
Max Temperature 54 °F 47 °F - ()
Min Temperature 39 °F 37 °F - ()
Degree Days  
Heating Degree Days 18    
Moisture  
Dew Point 44 °F    
Average Humidity 86    
Maximum Humidity 100    
Minimum Humidity 54    
Precipitation  
Precipitation 0.67 in 0.13 in - ()
Sea Level Pressure  
Sea Level Pressure 29.21 in    
Wind  
Wind Speed 18 mph ()    
Max Wind Speed 38 mph    
Max Gust Speed 55 mph    
Visibility 6.7 miles    
Events Rain , Hail    
T = Trace of Precipitation, MM = Missing Value Source: Averaged Metar Reports

Daily Weather History Graph

Daily Weather History Graph

Search for Another Location

Airport:

Trip Planner

Search our weather history database for the weather conditions in past years. The results will help you decide how hot, cold, wet, or windy it might be!

Date:

Astronomy

Dec. 18, 2013 Rise Set
Actual Time 8:43 AM GMT 4:21 PM GMT
Civil Twilight 8:01 AM GMT 5:03 PM GMT
Nautical Twilight 7:17 AM GMT 5:47 PM GMT
Astronomical Twilight 6:35 AM GMT 6:29 PM GMT
Moon 5:52 PM GMT (12/18) 9:03 AM GMT (12/18)
Length of Visible Light 9h 01m
Length of Day
7h 37m
Full, 99% of the Moon is Illuminated
Dec 18
Full
Dec 25
Last Quarter
Jan 1
New
Jan 8
First Quarter
Jan 16
Full

Hourly Weather History & Observations

Time (GMT) Temp. Windchill Dew Point Humidity Pressure Visibility Wind Dir Wind Speed Gust Speed Precip Events Conditions
12:00 AM 49 °F - 46 °F 84% 29.58 in 10 mi SSE 24.6 mph - - Rain Light Rain
12:00 AM 50.0 °F - 46.4 °F 87% 29.56 in 6.2 mi SSE 24.2 mph - N/A Rain Light Rain
12:30 AM 50.0 °F - 46.4 °F 87% 29.56 in 6.2 mi SSE 23.0 mph - N/A   Mostly Cloudy
1:00 AM 49 °F - 47 °F 91% 29.57 in 4 mi SSE 17.9 mph - - Rain Light Rain
1:00 AM 50.0 °F - 46.4 °F 87% 29.56 in 3.7 mi SSE 18.4 mph - N/A Rain Light Rain
1:30 AM 48.2 °F - 48.2 °F 100% 29.53 in 2.8 mi SSE 13.8 mph - N/A Rain Light Rain
2:00 AM 49 °F - 48 °F 96% 29.54 in 2 mi SSE 13.4 mph - - Rain Light Rain
2:00 AM 50.0 °F - 48.2 °F 94% 29.53 in 2.2 mi SSE 13.8 mph - N/A Rain Light Rain
2:30 AM 50.0 °F - 48.2 °F 94% 29.53 in 6.2 mi South 13.8 mph - N/A   Mostly Cloudy
3:00 AM 50 °F - 49 °F 96%  in 12 mi SSE 13.4 mph - - Rain Light Rain
3:00 AM 50.0 °F - 50.0 °F 100% 29.50 in 6.2 mi SSE 12.7 mph - N/A   Scattered Clouds
3:30 AM 50.0 °F - 50.0 °F 100% 29.50 in 6.2 mi SE 8.1 mph - N/A   Scattered Clouds
4:00 AM 49 °F - 49 °F 98% 29.52 in 12 mi SE 11.2 mph - -   Partly Cloudy
4:00 AM 50.0 °F - 48.2 °F 94% 29.50 in 6.2 mi SE 10.4 mph - N/A   Scattered Clouds
4:30 AM 50.0 °F - 48.2 °F 94% 29.50 in 6.2 mi SSE 12.7 mph - N/A   Mostly Cloudy
5:00 AM 51 °F - 49 °F 90% 29.50 in 4 mi South 13.4 mph - - Rain Light Rain
5:00 AM 51.8 °F - 48.2 °F 88% 29.47 in 3.7 mi South 12.7 mph - N/A Rain Light Rain
5:30 AM 50.0 °F - 48.2 °F 94% 29.47 in 6.2 mi SSE 11.5 mph - N/A   Mostly Cloudy
6:00 AM 49 °F - 48 °F 95% 29.48 in 12 mi SSE 8.9 mph - - Rain Light Rain
6:00 AM 50.0 °F - 48.2 °F 94% 29.47 in 6.2 mi SSE 8.1 mph - N/A   Mostly Cloudy
6:30 AM 50.0 °F - 48.2 °F 94% 29.44 in 6.2 mi South 11.5 mph - N/A   Mostly Cloudy
7:00 AM 50 °F - 48 °F 91% 29.46 in 10 mi SSE 13.4 mph - - Rain Light Rain
7:00 AM 50.0 °F - 48.2 °F 94% 29.44 in 6.2 mi SSE 13.8 mph - N/A Rain Light Rain
7:30 AM 50.0 °F - 48.2 °F 94% 29.42 in 6.2 mi SSE 13.8 mph - N/A   Mostly Cloudy
8:00 AM 49 °F - 48 °F 94% 29.42 in 11 mi SE 13.4 mph - - Rain Light Rain
8:00 AM 50.0 °F - 48.2 °F 94% 29.42 in 6.2 mi SE 13.8 mph - N/A   Mostly Cloudy
8:30 AM 50.0 °F - 48.2 °F 94% 29.39 in 6.2 mi SE 15.0 mph - N/A   Scattered Clouds
9:00 AM 49 °F - 47 °F 92% 29.37 in 7 mi SE 15.7 mph - -   Mist
9:00 AM 50.0 °F - 48.2 °F 94% 29.36 in 6.2 mi SE 16.1 mph - N/A   Mostly Cloudy
9:30 AM 50.0 °F - 46.4 °F 87% 29.36 in 6.2 mi SE 15.0 mph - N/A   Mostly Cloudy
10:00 AM 50 °F - 47 °F 85% 29.33 in 7 mi SE 11.2 mph - -   Mist
10:00 AM 50.0 °F - 46.4 °F 87% 29.33 in 6.2 mi SE 11.5 mph - N/A   Mostly Cloudy
10:30 AM 51.8 °F - 46.4 °F 82% 29.24 in 6.2 mi SE 15.0 mph - N/A   Mostly Cloudy
11:00 AM 51 °F - 47 °F 82% 29.26 in 11 mi SE 17.9 mph - - Rain Light Rain Showers
11:00 AM 51.8 °F - 46.4 °F 82% 29.24 in 6.2 mi SE 17.3 mph - N/A   Mostly Cloudy
11:30 AM 51.8 °F - 48.2 °F 88% 29.18 in 6.2 mi SSE 17.3 mph - N/A   Mostly Cloudy
12:00 PM 52 °F - 48 °F 80% 29.14 in 12 mi SSE 24.6 mph - -   Partly Cloudy
12:00 PM 51.8 °F - 48.2 °F 88% 29.12 in 6.2 mi SSE 25.3 mph - N/A   Mostly Cloudy
12:30 PM 50.0 °F - 48.2 °F 94% 29.06 in 6.2 mi SE 20.7 mph - N/A   Light Drizzle
1:00 PM 51 °F - 50 °F 93% 29.02 in 12 mi SE 20.1 mph - - Rain Light Drizzle
1:00 PM 51.8 °F - 50.0 °F 94% 29.00 in 6.2 mi SE 19.6 mph - N/A   Mostly Cloudy
1:30 PM 53.6 °F - 50.0 °F 88% 28.94 in 4.3 mi SSE 25.3 mph - N/A Rain Rain
2:00 PM 53 °F - 51 °F 91% 28.89 in 4 mi SSE 26.8 mph - - Rain Rain
2:00 PM 51.8 °F - 51.8 °F 100% 28.88 in 3.7 mi SSE 26.5 mph - N/A Rain Rain
2:30 PM 53.6 °F - 51.8 °F 94% 28.85 in 2.5 mi South 24.2 mph 36.8 mph N/A Rain Rain
3:00 PM 43 °F - 41 °F 89% 28.90 in 3 mi WSW 31.3 mph - - Rain Rain
3:00 PM 42.8 °F 32.1 °F 41.0 °F 93% 28.88 in 3.1 mi WSW 31.1 mph 43.7 mph N/A Rain Rain
3:30 PM 42.8 °F 36.2 °F 41.0 °F 93% 28.85 in 6.2 mi SW 12.7 mph - N/A Rain Light Rain
4:00 PM 45 °F - 41 °F 82% 28.87 in 11 mi SSW 17.9 mph - - Rain Light Rain
4:00 PM 44.6 °F 37.2 °F 41.0 °F 87% 28.85 in 6.2 mi SSW 17.3 mph - N/A   Mostly Cloudy
4:30 PM 46.4 °F 39.0 °F 42.8 °F 87% 28.85 in 6.2 mi SSW 19.6 mph - N/A   Mostly Cloudy
5:00 PM 47 °F - 42 °F 75% 28.89 in 12 mi SW 26.8 mph - - Rain Light Rain Showers
5:00 PM 46.4 °F 37.7 °F 41.0 °F 81% 28.88 in 6.2 mi SW 26.5 mph 50.6 mph N/A   Scattered Clouds
5:30 PM 46.4 °F 36.4 °F 41.0 °F 81% 28.88 in 6.2 mi SW 35.7 mph 55.2 mph N/A   Mostly Cloudy
6:00 PM 47 °F - 38 °F 61% 28.92 in 9 mi WSW 38.0 mph - - Rain Light Rain Showers
6:00 PM 46.4 °F 36.1 °F 37.4 °F 71% 28.91 in 6.2 mi WSW 38.0 mph 51.8 mph N/A   Mostly Cloudy
6:30 PM 46.4 °F 36.5 °F 39.2 °F 76% 28.91 in 6.2 mi WSW 34.5 mph 51.8 mph N/A   Mostly Cloudy
7:00 PM 45 °F - 38 °F 70% 28.96 in 7 mi WSW 33.6 mph - - Rain Light Rain Showers
7:00 PM 44.6 °F 34.2 °F 39.2 °F 81% 28.94 in 6.2 mi WSW 33.4 mph 48.3 mph N/A   Mostly Cloudy
7:30 PM 44.6 °F 34.4 °F 37.4 °F 76% 28.97 in 6.2 mi WSW 32.2 mph - N/A   Mostly Cloudy
8:00 PM 45 °F - 34 °F 54% 29.02 in 10 mi WSW 26.8 mph - - Rain Light Rain Showers
8:00 PM 44.6 °F 35.3 °F 33.8 °F 66% 29.00 in 6.2 mi WSW 26.5 mph 40.3 mph N/A Rain Light Rain Showers
8:30 PM 42.8 °F 31.9 °F 35.6 °F 76% 29.03 in 6.2 mi WSW 32.2 mph 47.2 mph N/A   Scattered Clouds
9:00 PM 42 °F - 35 °F 68% 29.09 in 3 mi WSW 26.8 mph - - Hail Heavy Small Hail
9:00 PM 42.8 °F 32.7 °F 35.6 °F 76% 29.06 in 3.1 mi WSW 27.6 mph - N/A Rain Rain Showers
9:30 PM 42.8 °F 32.5 °F 32.0 °F 66% 29.09 in 6.2 mi WSW 28.8 mph - N/A   Partly Cloudy
10:00 PM 44 °F - 34 °F 59% 29.11 in 11 mi WSW 31.3 mph - - Hail Light Hail Showers
10:00 PM 44.6 °F 34.6 °F 33.8 °F 66% 29.09 in 6.2 mi WSW 31.1 mph 52.9 mph N/A   Scattered Clouds
10:30 PM 39.2 °F 27.6 °F 35.6 °F 87% 29.12 in 6.2 mi SW 28.8 mph - N/A   Scattered Clouds
11:00 PM 42 °F - 35 °F 70% 29.17 in 12 mi WSW 22.4 mph - - Hail Light Hail Showers
11:00 PM 41.0 °F 31.1 °F 35.6 °F 81% 29.15 in 6.2 mi WSW 23.0 mph - N/A   Mostly Cloudy
11:30 PM 42.8 °F 33.5 °F 33.8 °F 70% 29.18 in 6.2 mi WSW 23.0 mph 50.6 mph N/A Rain Light Rain Showers